{"data":{"norad_id":53220,"epoch":"2026-09-19T09:37:23.200608Z","epoch_age_seconds":167225,"freshness":"FRESH","line1":"1 53220U 22084AH  26262.40096297  .00000383  00000+0  14196-4 0  9991","line2":"2 53220  97.2849 317.2151 0001223  97.7584 262.3798 15.33438020229044","mean_motion":15.3343802,"eccentricity":0.0001223,"inclination_deg":97.2849,"raan_deg":317.2151,"arg_perigee_deg":97.7584,"mean_anomaly_deg":262.3798,"bstar":1.4196e-5,"rev_number":22904,"period_min":93.906632105026,"perigee_km":464.72695750084,"apogee_km":466.40092675128,"semimajor_km":6843.7009421261,"source":"CELESTRAK","updated_at":"2026-09-20T09:00:40.194676Z"}}